Starlink 3930

operational
NORAD ID: 52568 Int'l Des: 2022-051 Owner: SPXS Country: US Constellation: starlink
LEOCIRCULAR

About Starlink 3930

Description loading...

Live Position

Loading 3D Globe...

Upcoming Passes

Altitude History

Altitude vs Time

uPlot chart will show altitude changes over time

Two-Line Element Set

1 52568U 22051AM 25304.52446459 .00000773 00000-0 66674-4 0 9999
2 52568 53.2173 338.9664 0001583 82.0412 278.0760 15.08841175192082
Epoch: Oct 31, 2025 • Age: 17 hours

Current Status

Altitude 558.4 km
Velocity 7.58 km/s
Sub-Earth Point -50.70°S, 96.16°E
Launch Date May 13, 2022
Age 3.4 years
Type internet

Technical Details

Classification Payload
Mass 297.00 kg
Dry Mass 275.00 kg
Total Mass 297.00 kg
Length 0.20 m
Diameter 2.80 m
Span 9.00 m
Shape Box + pan
Manufacturer SPXS
Bus Type Starlink
Phase Status In Orbit
Owner/State SPXS/US

Large Constellations

Loading constellations...